Location: Rowland
(34.5359°N, 79.2929°W)
Time: 03:50:29
(UTC+00:00)

Transit 4A - Pass Details

Date: 06 October 2022
Orbit: 864 x 979 km, 66.8° (Epoch: 02 December)

Event Time Altitude Azimuth Distance (km) Brightness Sun altitude
Rises 03:47:24 0° 252° (WSW) 3,616 - -55.5°
Reaches altitude 10° 03:50:57 10° 272° (W) 2,652 - -55.9°
Maximum altitude 03:54:50 17° 311° (NW) 2,162 - -56.3°
Drops below altitude 10° 03:58:41 10° 351° (N) 2,607 - -56.8°
Sets 04:02:09 0° 11° (N) 3,527 - -57.1°
